THORAD DELTA 1 DEB, 42625

Orbit data source: Space-Track

THORAD DELTA 1 DEB, 42625 is space debris in SSO originally from a launch on Fri, 15 Nov 1974 UTC launched from the Air Force Western Test Range (AFWTR). Debris objects in space refer to the collection of defunct objects orbiting the Earth. Examples of debris include non-operational satellites, rocket bodies, and fragments generated from explosions, collisions, or faulty payload assembly.

Loading next visibility...
Identifier
42625, 1974-089GS
Orbit
SSO
Last TLE update
1 week ago
Origin
Manufacturer
Unknown
Mission
Spacecraft
Bus & Motor
Unknown
Mass
Unknown
Launch date (UTC)
1974-11-15 (51 years ago)
Launch vehicle
Unknown
Launch site
Air Force Western Test Range (AFWTR)
Object type
Payload
Rocket body
Debris
Shape & HBR
Unknown
Radar Cross Section
Small (<0.1 m²)

Expand to show TLE details & history

TLE from 1 week ago
0 THORAD DELTA 1 DEB
1 42625U 74089GS  25182.43741978  .00000111  00000-0  11062-2 0  9993
2 42625 101.9893 155.6658 0005064  84.5758  67.4667 12.44143564528364
Epoch: 2025-07-01T10:29Z
TLE epoch observation values (Epoch: 2025-07-01T10:29:53.068Z)
Latitude
27.28249°
Longitude
-95.28113°
Altitude
1,490.589 km
Speed
7.122 km/s
True Right ascension
22h 47m 41s
True Declination
27° 09' 20"
Sunlit
Object was in daylight at epoch
Visualization orbit readout
Latitude
-70.00703°
Longitude
-130.24533°
Altitude
1,519.048 km
Speed
7.104 km/s
Apparent Right ascension
05h 46m 27s
Apparent Declination
-77° 38' 52"
Sunlit
Object is in full shadow
Visualization observer readout
Local Sidereal Time
19:10:17
Azimuth
172.976° S
Elevation
-51.263°
Doppler factor
1
Orbital elements
Apogee altitude
1,490.638 km
Perigee altitude
1,482.673 km
Semi-major axis
7,864.793 km
Eccentricity
0.00051
Inclination
101.9893°
RAAN
155.6658°
Arg. of periapsis
84.5758°
True anomaly
Unknown
Mean anomaly
67.4667°
Eccentric anomaly
Unknown
Mean motion
3.1118 °/min
Orbital period
115.69 mins
BSTAR
0.0011062
Loading maneuver chart data...
Loading SW <> Apogee altitude chart data...

THORAD DELTA 1 DEB Visibility forecast

Observer location: undefined°, undefined°

Span
Click to sort rows by Start time (UTC) header in descending order
Start Az.
Max El. time (UTC)
Max El. Az.
Max El.
End time (UTC)
End Az.
15 mins2025-07-08 10:12:47.746Z33.212° NE2025-07-08 10:20:47.746Z104.39° ESE31.647°2025-07-08 10:27:47.746Z163.65° S
14 mins2025-07-08 12:07:47.746Z3° NNE2025-07-08 12:13:47.746Z302.742° NW37.028°2025-07-08 12:21:47.746Z226.622° WSW
4 mins2025-07-08 19:30:47.746Z52.076° ENE2025-07-08 19:31:47.746Z44.696° NE12.124°2025-07-08 19:34:47.746Z23.185° NE
14 mins2025-07-08 21:16:47.746Z136.011° SSE2025-07-08 21:23:47.746Z60.47° ENE39.34°2025-07-08 21:30:47.746Z352.55° N
13 mins2025-07-08 23:11:47.746Z208.661° SW2025-07-08 23:17:47.746Z267.1° W28.791°2025-07-08 23:24:47.746Z324.041° NNW
|